Disclaimer

Please do not use the information listed here in-flight or in-navigation, as they are not provided to us by the airports but are provided by volunteers, so they might be outdated.

Search


Regions


Airport information page

Radio informations:
OPS - 228.9 MHz
ARTIC RDO - 126.7 MHz
ARTIC RDO - 126.7 MHz

Airport informations:
Latitude: 69° 06' 29.00" N
Longitude: 105° 08' 18.00" W
Elevation: 90 feet - 27 meters
Operating hours: N/A
Operating agency: Civil government, landing fees and diplomatic clearance may be required
Timezone: Second Sunday in March at 0200 to first Sunday in November at 0200 local time (Exception Arizona and that portion of Indiana in the Eastern Time Zone)
Fuel: Jet A, without icing inhibitor.

JP-4, Wide cut turbine fuel MIL Spec T-5624

100/130 octane gasoline, leaded, MIL-L-5572F (GREEN)

Runway information:
13T/31T - 5000 x 150 feet< - >1524 x 46 meters

Recent METARs:
CYCB 200500Z 27006KT 5SM -SN BKN040 OVC120 M22/M26 A3000 RMK SC5AC3 SLP164
CYCB 200500Z 27006KT 5SM -SN BKN040 OVC120 M22/M26 A3000 RMK SC5AC3 SLP164
CYCB 200600Z 25007KT 6SM -SN FEW014 BKN034 OVC100 M22/M25 A2998 RMK CF1SC4AC3 SLP160

Airport on the map: